Stations météo

Publicité
Geilenkirchen, Allemagne (10500): Température de l'air & dewpoint: 04.12.2018 17:00:00 - 10.12.2018 17:00:00 (CET)Geilenkirchen, Allemagne (10500): Vitesse du vent & gusts: 04.12.2018 17:00:00 - 10.12.2018 17:00:00 (CET)Geilenkirchen, Allemagne (10500): Direction du vent: 04.12.2018 17:00:00 - 10.12.2018 17:00:00 (CET)Geilenkirchen, Allemagne (10500): reduced air pressure: 04.12.2018 17:00:00 - 10.12.2018 17:00:00 (CET)Geilenkirchen, Allemagne (10500): visibility: 04.12.2018 17:00:00 - 10.12.2018 17:00:00 (CET)
Date & Time tt [°C] td [°C] ff [km/h] ff [knt] fx [km/h] fx [knt] dd ppp [hPa] vv [km]
10.12.2018 17:00:00 5,3 4,1 18 10 - - WNW 1023,9 10
10.12.2018 16:00:00 5,1 4,0 16 9 - - W 1023,2 10
10.12.2018 15:00:00 4,7 3,9 22 12 50 27 W 1022,9 10
10.12.2018 14:00:00 7,2 3,4 29 16 47 25 W 1022,4 10
10.12.2018 13:00:00 7,3 3,9 28 15 - - W 1022,6 10
10.12.2018 12:00:00 5,7 3,8 16 9 - - W 1023,2 10
10.12.2018 11:00:00 4,9 3,7 15 8 - - WNW 1023,3 10
10.12.2018 10:00:00 4,2 3,3 11 6 - - WSW 1022,9 10
10.12.2018 09:00:00 3,5 2,7 16 9 - - WSW 1022,3 10
10.12.2018 08:00:00 4,0 3,1 18 10 - - W 1022,0 8
10.12.2018 07:00:00 4,4 3,1 22 12 - - W 1021,3 10
10.12.2018 06:00:00 4,5 3,1 24 13 - - W 1020,6 10
10.12.2018 05:00:00 4,8 3,3 24 13 - - W 1020,3 10
10.12.2018 04:00:00 5,6 2,7 21 11 - - W 1019,7 10
10.12.2018 03:00:00 5,5 2,8 24 13 - - W 1019,2 10
10.12.2018 02:00:00 5,6 3,0 24 13 - - W 1018,3 10
10.12.2018 01:00:00 5,8 3,5 24 13 - - W 1017,6 10
10.12.2018 00:00:00 6,3 4,3 28 15 - - W 1016,7 10
09.12.2018 23:00:00 6,2 4,6 26 14 47 25 W 1015,9 10
09.12.2018 22:00:00 6,1 4,7 24 13 - - W 1014,8 10
09.12.2018 21:00:00 6,5 5,1 28 15 50 27 WNW 1014,1 10
09.12.2018 20:00:00 6,9 5,3 26 14 - - WNW 1012,7 10
09.12.2018 19:00:00 6,8 5,1 29 16 - - W 1011,1 10
09.12.2018 18:00:00 - - - - - - - - -
09.12.2018 17:00:00 - - - - - - - - -
09.12.2018 16:00:00 - - - - - - - - -
09.12.2018 15:00:00 - - - - - - - - -
09.12.2018 14:00:00 - - - - - - - - -
09.12.2018 13:00:00 - - - - - - - - -
09.12.2018 12:00:00 - - - - - - - - -
09.12.2018 11:00:00 - - - - - - - - -
09.12.2018 10:00:00 - - - - - - - - -
09.12.2018 09:00:00 - - - - - - - - -
09.12.2018 08:00:00 - - - - - - - - -
09.12.2018 07:00:00 - - - - - - - - -
09.12.2018 06:00:00 - - - - - - - - -
09.12.2018 05:00:00 - - - - - - - - -
09.12.2018 04:00:00 - - - - - - - - -
09.12.2018 03:00:00 - - - - - - - - -
09.12.2018 02:00:00 - - - - - - - - -
09.12.2018 01:00:00 - - - - - - - - -
09.12.2018 00:00:00 - - - - - - - - -
08.12.2018 23:00:00 - - - - - - - - -
08.12.2018 22:00:00 - - - - - - - - -
08.12.2018 21:00:00 - - - - - - - - -
08.12.2018 20:00:00 - - - - - - - - -
08.12.2018 19:00:00 - - - - - - - - -
08.12.2018 18:00:00 - - - - - - - - -
08.12.2018 17:00:00 - - - - - - - - -
08.12.2018 16:00:00 - - - - - - - - -
08.12.2018 15:00:00 - - - - - - - - -
08.12.2018 14:00:00 - - - - - - - - -
08.12.2018 13:00:00 - - - - - - - - -
08.12.2018 12:00:00 - - - - - - - - -
08.12.2018 11:00:00 - - - - - - - - -
08.12.2018 10:00:00 - - - - - - - - -
08.12.2018 09:00:00 - - - - - - - - -
08.12.2018 08:00:00 - - - - - - - - -
08.12.2018 07:00:00 - - - - - - - - -
08.12.2018 06:00:00 - - - - - - - - -
08.12.2018 05:00:00 - - - - - - - - -
08.12.2018 04:00:00 - - - - - - - - -
08.12.2018 03:00:00 - - - - - - - - -
08.12.2018 02:00:00 - - - - - - - - -
08.12.2018 01:00:00 - - - - - - - - -
08.12.2018 00:00:00 - - - - - - - - -
07.12.2018 23:00:00 - - - - - - - - -
07.12.2018 22:00:00 - - - - - - - - -
07.12.2018 21:00:00 - - - - - - - - -
07.12.2018 20:00:00 6,9 5,2 26 14 54 29 W 1003,0 10
07.12.2018 19:00:00 8,6 7,1 28 15 - - WSW 1000,7 10
07.12.2018 18:00:00 10,4 8,8 29 16 65 35 SW 999,1 10
07.12.2018 17:00:00 10,5 8,6 24 13 50 27 SSW 999,2 10
07.12.2018 16:00:00 10,9 8,4 22 12 - - SW 1000,5 10
07.12.2018 15:00:00 12,0 8,0 29 16 - - SW - 10
07.12.2018 14:00:00 13,1 8,3 28 15 54 29 SW 1003,0 10
07.12.2018 13:00:00 12,3 8,8 22 12 - - SW 1004,8 10
07.12.2018 12:00:00 12,3 9,0 21 11 50 27 SW 1007,0 10
07.12.2018 11:00:00 11,8 9,3 24 13 54 29 SW 1008,1 10
07.12.2018 10:00:00 10,9 9,8 21 11 - - SW 1009,3 10
07.12.2018 09:00:00 10,5 9,9 15 8 - - SW 1010,3 4,0
07.12.2018 08:00:00 10,7 10,1 21 11 47 25 SW 1010,8 4,5
07.12.2018 07:00:00 10,8 10,2 18 10 - - SW 1011,4 6
07.12.2018 06:00:00 10,9 10,2 21 11 50 27 WSW 1012,3 7
07.12.2018 05:00:00 11,0 10,2 18 10 - - SW 1012,7 7
07.12.2018 04:00:00 11,2 10,2 18 10 - - SW 1013,8 10
07.12.2018 03:00:00 11,4 10,0 18 10 - - SW 1014,3 10
07.12.2018 02:00:00 11,9 9,7 22 12 54 29 SW 1015,0 10
07.12.2018 01:00:00 12,5 9,6 21 11 - - WSW 1015,7 10
07.12.2018 00:00:00 11,5 10,0 22 12 54 29 WSW 1016,3 7
06.12.2018 23:00:00 12,6 10,2 24 13 47 25 WSW 1016,2 10
06.12.2018 22:00:00 12,6 10,4 22 12 - - WSW 1016,7 10
06.12.2018 21:00:00 12,6 10,4 21 11 - - WSW 1016,7 10
06.12.2018 20:00:00 12,5 10,5 24 13 54 29 WSW 1016,8 10
06.12.2018 19:00:00 12,6 10,2 16 9 - - SW 1016,9 10
06.12.2018 18:00:00 12,7 10,0 22 12 - - WSW 1016,9 10
06.12.2018 17:00:00 12,7 9,8 16 9 - - WSW 1017,1 10
06.12.2018 16:00:00 12,6 9,4 13 7 - - WSW 1017,2 10
06.12.2018 15:00:00 12,7 9,6 13 7 - - WSW 1017,1 10
06.12.2018 14:00:00 12,7 10,2 16 9 - - WSW 1017,3 10
06.12.2018 13:00:00 12,5 10,1 22 12 - - WSW 1017,5 10
06.12.2018 12:00:00 12,3 10,2 18 10 - - WSW 1017,3 10
06.12.2018 11:00:00 11,8 10,3 16 9 - - WSW 1017,3 10
06.12.2018 10:00:00 11,5 10,4 11 6 - - SW 1016,3 10
06.12.2018 09:00:00 11,3 10,3 15 8 - - WSW 1016,4 8
06.12.2018 08:00:00 10,6 10,6 16 9 - - WSW 1015,6 6
06.12.2018 07:00:00 10,2 9,6 13 7 - - WSW 1015,0 5
06.12.2018 06:00:00 10,2 9,3 13 7 - - SW 1014,2 7
06.12.2018 05:00:00 10,7 8,6 11 6 - - SW 1013,9 10
06.12.2018 04:00:00 10,3 8,5 11 6 - - SSW 1013,8 10
06.12.2018 03:00:00 9,7 8,4 11 6 - - SSW 1014,0 10
06.12.2018 02:00:00 10,3 7,4 11 6 - - SSW 1013,8 10
06.12.2018 01:00:00 10,9 6,5 11 6 - - SW 1014,3 10
06.12.2018 00:00:00 10,6 6,3 5 3 - - SW 1014,3 10
05.12.2018 23:00:00 9,9 6,6 8 4 - - S 1014,5 10
05.12.2018 22:00:00 7,6 6,0 5 3 - - E 1015,4 10
05.12.2018 21:00:00 7,8 5,9 8 4 - - ESE 1015,4 10
05.12.2018 20:00:00 7,9 6,1 8 4 - - E 1016,2 10
05.12.2018 19:00:00 8,3 6,0 8 4 - - ESE 1016,8 10
05.12.2018 18:00:00 8,3 6,0 9 5 - - E 1017,9 10
05.12.2018 17:00:00 9,1 5,7 5 3 - - SE 1018,4 10
05.12.2018 16:00:00 8,7 6,2 5 3 - - SE 1019,7 10
05.12.2018 15:00:00 8,6 6,1 9 5 - - ESE 1020,4 10
05.12.2018 14:00:00 8,8 5,9 13 7 - - ESE 1021,2 10
05.12.2018 13:00:00 8,8 5,5 11 6 - - E 1022,0 10
05.12.2018 12:00:00 6,9 5,0 8 4 - - E 1022,9 10
05.12.2018 11:00:00 5,6 3,7 8 4 - - E 1024,0 10
05.12.2018 10:00:00 4,5 2,9 5 3 - - E 1024,3 10
05.12.2018 09:00:00 2,5 1,6 9 5 - - E 1024,9 10
05.12.2018 08:00:00 3,4 1,4 4 2 - - ESE 1025,1 10
05.12.2018 07:00:00 2,4 0,8 5 3 - - SE 1025,4 10
05.12.2018 06:00:00 2,1 0,5 8 4 - - ESE 1025,6 10
05.12.2018 05:00:00 2,4 0,5 5 3 - - SE 1025,4 10
05.12.2018 04:00:00 2,7 0,5 5 3 - - SE 1025,8 10
05.12.2018 03:00:00 3,4 0,9 9 5 - - SSE 1026,2 10
05.12.2018 02:00:00 2,8 1,0 11 6 - - SSE 1026,4 10
05.12.2018 01:00:00 2,1 0,6 8 4 - - S 1026,8 10
05.12.2018 00:00:00 1,9 1,3 8 4 - - S 1027,0 10
04.12.2018 23:00:00 2,6 2,0 8 4 - - S 1026,9 10
04.12.2018 22:00:00 2,2 1,8 8 4 - - S 1027,0 10
04.12.2018 21:00:00 2,7 2,7 4 2 - - S 1026,3 10
04.12.2018 20:00:00 2,2 1,7 4 2 - - SSE 1026,2 10
04.12.2018 19:00:00 2,6 1,8 0 0 - - N 1025,7 10
04.12.2018 18:00:00 3,6 3,0 5 3 - - S 1025,2 10
04.12.2018 17:00:00 4,6 3,4 2 1 - - SW 1024,9 10

tt = Température de l'air
td = dewpoint
ff = Vitesse du vent
fx = gusts
dd = Direction du vent
ppp = reduced air pressure
vv = visibility

stations d'obs. à proximité